Weather History for KGEG - November, 2013

Change the Weather History Date:

Friday, November 15, 2013

  Actual Average Record
Temperature  
Mean Temperature 36 °F 36 °F  
Max Temperature 38 °F 42 °F 60 °F (1896)
Min Temperature 33 °F 30 °F -11 °F (1955)
Degree Days  
Heating Degree Days 29 29  
Month to date heating degree days 395 397  
Since 1 July heating degree days 1152 1185  
Cooling Degree Days 0 0  
Month to date cooling degree days 0 0  
Year to date cooling degree days 709 450  
Moisture  
Dew Point 32 °F    
Average Humidity 91    
Maximum Humidity 100    
Minimum Humidity 82    
Precipitation  
Precipitation 0.19 in 0.08 in 0.69 in (1915)
Month to date precipitation 1.30 1.07  
Year to date precipitation 10.42 13.03  
Snow  
Snow 0.20 in 0.30 in 4.00 in (1930)
Month to date snowfall 2.7 2.2  
Since 1 July snowfall 2.7 2.3  
Since 1 September snowfall 2.7 2.3  
Snow Depth 0.00 in    
Sea Level Pressure  
Sea Level Pressure 29.65 in    
Wind  
Wind Speed 16 mph (SSW)    
Max Wind Speed 29 mph    
Max Gust Speed 36 mph    
Visibility 5 miles    
Events Fog , Rain , Snow    
T = Trace of Precipitation, MM = Missing Value Source: NWS Daily Summary

Daily Weather History Graph

Daily Weather History Graph

Search for Another Location

Airport or City:

Trip Planner

Search our weather history database for the weather conditions in past years. The results will help you decide how hot, cold, wet, or windy it might be!

Date:

Astronomy

Nov. 15, 2013 Rise Set
Actual Time 6:55 AM PST 4:13 PM PST
Civil Twilight 6:22 AM PST 4:46 PM PST
Nautical Twilight 5:44 AM PST 5:24 PM PST
Astronomical Twilight 5:08 AM PST 6:00 PM PST
Moon 3:18 PM PST (11/15) 4:49 AM PST (11/15)
Length of Visible Light 10h 24m
Length of Day
9h 17m
Waxing Gibbous, 97% of the Moon is Illuminated
Nov 15
Waxing Gibbous
Nov 17
Full
Nov 25
Last Quarter
Dec 2
New
Dec 9
First Quarter

Hourly Weather History & Observations

Time (PST) Temp. Windchill Dew Point Humidity Pressure Visibility Wind Dir Wind Speed Gust Speed Precip Events Conditions
12:53 AM 35.1 °F 29.3 °F 34.0 °F 96% 29.92 in 0.5 mi South 6.9 mph - N/A Fog Fog
12:59 AM 35.6 °F 29.9 °F 33.8 °F 93% 29.88 in 0.2 mi South 6.9 mph - N/A Fog Fog
1:53 AM 35.1 °F 28.6 °F 34.0 °F 96% 29.91 in 0.2 mi SW 8.1 mph - 0.00 in Fog Light Drizzle
2:53 AM 36.0 °F 28.5 °F 34.0 °F 93% 29.88 in 0.2 mi SSW 10.4 mph - 0.00 in   Overcast
3:53 AM 35.1 °F 27.9 °F 34.0 °F 96% 29.86 in 0.2 mi SSW 9.2 mph - N/A Fog Fog
4:53 AM 34.0 °F 26.0 °F 33.1 °F 96% 29.85 in 0.2 mi SSW 10.4 mph - N/A Fog Mist
5:53 AM 33.1 °F 23.9 °F 32.0 °F 96% 29.83 in 0.2 mi SSW 12.7 mph - N/A Fog Mist
6:53 AM 33.1 °F 21.9 °F 30.9 °F 92% 29.82 in 0.2 mi SSW 18.4 mph 24.2 mph N/A   Overcast
7:01 AM 33.8 °F 23.2 °F 30.2 °F 87% 29.76 in 3.0 mi SSW 17.3 mph - N/A   Overcast
7:53 AM 33.1 °F 23.4 °F 30.9 °F 92% 29.80 in 3.0 mi SSW 13.8 mph - N/A   Overcast
8:53 AM 35.1 °F 25.5 °F 30.9 °F 85% 29.78 in 10.0 mi SSW 15.0 mph 24.2 mph N/A   Overcast
9:53 AM 36.0 °F 26.7 °F 32.0 °F 86% 29.76 in 10.0 mi SSW 15.0 mph - N/A   Overcast
10:53 AM 37.0 °F 27.0 °F 32.0 °F 82% 29.73 in 8.0 mi SSW 18.4 mph 27.6 mph N/A   Overcast
11:00 AM 37.4 °F 27.2 °F 32.0 °F 81% 29.68 in 7.0 mi SSW 19.6 mph 27.6 mph 0.00 in Rain , Snow Light Rain
11:11 AM 35.6 °F 25.2 °F 32.0 °F 87% 29.66 in 1.5 mi SSW 18.4 mph - 0.00 in Rain , Snow Light Rain
11:39 AM 35.6 °F 25.2 °F 33.8 °F 93% 29.66 in 1.5 mi SSW 18.4 mph - 0.00 in Snow Light Snow
11:44 AM 35.6 °F 25.2 °F 33.8 °F 93% 29.66 in 7.0 mi SSW 18.4 mph - 0.00 in Snow Light Snow
11:53 AM 36.0 °F 26.7 °F 32.0 °F 86% 29.69 in 9.0 mi SSW 15.0 mph - 0.00 in Rain , Snow Light Rain
12:05 PM 35.6 °F 25.2 °F 32.0 °F 87% 29.64 in 10.0 mi SSW 18.4 mph 23.0 mph 0.00 in   Overcast
12:26 PM 37.4 °F 27.5 °F 33.8 °F 87% 29.62 in 10.0 mi SSW 18.4 mph - 0.00 in   Overcast
12:53 PM 37.0 °F 26.7 °F 33.1 °F 86% 29.65 in 10.0 mi SSW 19.6 mph 27.6 mph 0.00 in Rain Light Rain
1:53 PM 37.0 °F 25.4 °F 32.0 °F 82% 29.61 in 10.0 mi SSW 25.3 mph 29.9 mph 0.00 in Rain Light Rain
2:10 PM 37.4 °F 26.6 °F 32.0 °F 81% 29.58 in 6.0 mi SW 21.9 mph - 0.01 in Rain Light Rain
2:53 PM 35.1 °F 24.8 °F 32.0 °F 89% 29.62 in 2.0 mi SW 17.3 mph - 0.04 in Rain , Snow Light Rain
3:41 PM 33.8 °F 24.3 °F 32.0 °F 93% 29.57 in 1.2 mi SW 13.8 mph - 0.04 in Snow Light Snow
3:53 PM 33.1 °F 24.4 °F 32.0 °F 96% 29.61 in 1.2 mi SSW 11.5 mph - 0.04 in Snow Light Snow
4:37 PM 33.8 °F 23.9 °F 30.2 °F 87% 29.53 in 1.5 mi SSW 15.0 mph - 0.03 in Snow Light Snow
4:53 PM 34.0 °F 24.6 °F 30.9 °F 89% 29.57 in 3.0 mi SSW 13.8 mph - 0.03 in Snow Light Snow
5:30 PM 33.8 °F 24.3 °F 32.0 °F 93% 29.50 in 3.0 mi South 13.8 mph - 0.01 in Snow Light Snow
5:53 PM 34.0 °F 25.0 °F 32.0 °F 92% 29.54 in 3.0 mi South 12.7 mph - 0.01 in Snow Light Snow
6:48 PM 35.6 °F 24.0 °F 33.8 °F 93% 29.45 in 10.0 mi SSW 23.0 mph 33.4 mph 0.00 in   Overcast
6:53 PM 36.0 °F 25.0 °F 33.1 °F 89% 29.49 in 10.0 mi SSW 20.7 mph 33.4 mph 0.00 in   Overcast
7:53 PM 36.0 °F 25.3 °F 33.1 °F 89% 29.45 in 10.0 mi SSW 19.6 mph 31.1 mph 0.00 in Rain Light Rain
8:53 PM 35.1 °F 22.7 °F 32.0 °F 89% 29.42 in 7.0 mi SSW 25.3 mph 31.1 mph 0.03 in Rain , Snow Light Rain
9:53 PM 35.1 °F 23.3 °F 32.0 °F 89% 29.38 in 10.0 mi SSW 23.0 mph 29.9 mph 0.01 in Rain , Snow Light Rain
10:31 PM 35.6 °F 24.5 °F 33.8 °F 93% 29.31 in 10.0 mi SSW 20.7 mph 31.1 mph 0.01 in Rain , Snow Light Rain
10:53 PM 35.1 °F 22.7 °F 32.0 °F 89% 29.33 in 10.0 mi SSW 25.3 mph 33.4 mph 0.02 in Rain , Snow Light Rain
11:53 PM 36.0 °F 23.7 °F 33.1 °F 89% 29.29 in 10.0 mi SSW 26.5 mph 35.7 mph 0.01 in Rain , Snow Light Rain